Time,TemperatureF,DewpointF,PressureIn,WindDirection,WindDirectionDegrees,WindSpeedMPH,WindSpeedGustMPH,Humidity,HourlyPrecipIn,Conditions,Clouds,dailyrainin,SoftwareType,DateUTC
2013-10-20 00:02:00,55.0,46.9,30.13,SSW,202,0.0,-999.0,74,-99.99,,,0.00,Acu-Link.com,2013-10-20 07:02:00,
2013-10-20 00:17:00,54.3,46.2,30.13,SSW,202,0.0,-999.0,74,-99.99,,,0.00,Acu-Link.com,2013-10-20 07:17:00,
2013-10-20 00:32:00,54.0,46.6,30.13,SSW,202,0.0,-999.0,76,-99.99,,,0.00,Acu-Link.com,2013-10-20 07:32:00,
2013-10-20 00:48:00,54.0,46.6,30.13,SSW,202,0.0,-999.0,76,-99.99,,,0.00,Acu-Link.com,2013-10-20 07:48:00,
2013-10-20 01:03:00,53.8,46.8,30.13,SSW,202,0.0,-999.0,77,-99.99,,,0.00,Acu-Link.com,2013-10-20 08:03:00,
2013-10-20 01:18:00,52.7,46.0,30.13,SSW,202,0.0,-999.0,78,-99.99,,,0.00,Acu-Link.com,2013-10-20 08:18:00,
2013-10-20 01:33:00,53.4,46.7,30.13,SSW,202,0.0,-999.0,78,-99.99,,,0.00,Acu-Link.com,2013-10-20 08:33:00,
2013-10-20 01:48:00,52.7,46.0,30.13,SSW,202,0.0,-999.0,78,-99.99,,,0.00,Acu-Link.com,2013-10-20 08:48:00,
2013-10-20 02:03:00,51.6,45.6,30.13,SSW,202,0.0,-999.0,80,-99.99,,,0.00,Acu-Link.com,2013-10-20 09:03:00,
2013-10-20 02:19:00,52.0,46.4,30.14,SSW,202,0.0,-999.0,81,-99.99,,,0.00,Acu-Link.com,2013-10-20 09:19:00,
2013-10-20 02:34:00,50.5,45.5,30.14,SSW,202,0.0,-999.0,83,-99.99,,,0.00,Acu-Link.com,2013-10-20 09:34:00,
2013-10-20 02:49:00,50.0,45.4,30.13,SSW,202,0.0,-999.0,84,-99.99,,,0.00,Acu-Link.com,2013-10-20 09:49:00,
2013-10-20 03:04:00,49.1,45.4,30.12,SSW,202,0.0,-999.0,87,-99.99,,,0.00,Acu-Link.com,2013-10-20 10:04:00,
2013-10-20 03:19:00,49.3,45.6,30.11,SSW,202,0.0,-999.0,87,-99.99,,,0.00,Acu-Link.com,2013-10-20 10:19:00,
2013-10-20 03:34:00,48.6,45.5,30.11,SSW,202,0.0,-999.0,89,-99.99,,,0.00,Acu-Link.com,2013-10-20 10:34:00,
2013-10-20 03:50:00,49.1,45.7,30.11,SSW,202,0.0,-999.0,88,-99.99,,,0.00,Acu-Link.com,2013-10-20 10:50:00,
2013-10-20 04:05:00,48.7,45.3,30.11,SSW,202,0.0,-999.0,88,-99.99,,,0.00,Acu-Link.com,2013-10-20 11:05:00,
2013-10-20 04:20:00,48.7,45.3,30.11,SSW,202,0.0,-999.0,88,-99.99,,,0.00,Acu-Link.com,2013-10-20 11:20:00,
2013-10-20 04:36:00,48.2,44.5,30.12,SSW,202,0.0,-999.0,87,-99.99,,,0.00,Acu-Link.com,2013-10-20 11:36:00,
2013-10-20 04:51:00,47.1,44.0,30.11,SSW,202,0.0,-999.0,89,-99.99,,,0.00,Acu-Link.com,2013-10-20 11:51:00,
2013-10-20 05:07:00,47.1,44.9,30.12,SSW,202,0.0,-999.0,92,-99.99,,,0.00,Acu-Link.com,2013-10-20 12:07:00,
2013-10-20 05:22:00,47.1,44.6,30.12,SSW,202,0.0,-999.0,91,-99.99,,,0.00,Acu-Link.com,2013-10-20 12:22:00,
2013-10-20 05:37:00,46.8,44.6,30.12,SSW,202,0.0,-999.0,92,-99.99,,,0.00,Acu-Link.com,2013-10-20 12:37:00,
2013-10-20 05:53:00,46.6,44.4,30.11,SSW,202,0.0,-999.0,92,-99.99,,,0.00,Acu-Link.com,2013-10-20 12:53:00,
2013-10-20 06:08:00,46.8,44.3,30.11,SSW,202,0.0,-999.0,91,-99.99,,,0.00,Acu-Link.com,2013-10-20 13:08:00,
2013-10-20 06:23:00,45.9,43.1,30.12,SSW,202,0.0,-999.0,90,-99.99,,,0.00,Acu-Link.com,2013-10-20 13:23:00,
2013-10-20 06:38:00,45.7,43.5,30.12,SSW,202,0.0,-999.0,92,-99.99,,,0.00,Acu-Link.com,2013-10-20 13:38:00,
2013-10-20 06:53:00,45.3,43.4,30.12,SSW,202,0.0,-999.0,93,-99.99,,,0.00,Acu-Link.com,2013-10-20 13:53:00,
2013-10-20 07:08:00,45.3,43.4,30.13,SSW,202,0.0,-999.0,93,-99.99,,,0.00,Acu-Link.com,2013-10-20 14:08:00,
2013-10-20 07:23:00,45.3,43.7,30.13,SSW,202,0.0,-999.0,94,-99.99,,,0.00,Acu-Link.com,2013-10-20 14:23:00,
2013-10-20 07:39:00,45.5,43.6,30.13,SSW,202,0.0,-999.0,93,-99.99,,,0.00,Acu-Link.com,2013-10-20 14:39:00,
2013-10-20 07:54:00,46.0,44.1,30.13,SSW,202,0.0,-999.0,93,-99.99,,,0.00,Acu-Link.com,2013-10-20 14:54:00,
2013-10-20 08:09:00,46.9,45.0,30.14,SSW,202,1.1,-999.0,93,-99.99,,,0.00,Acu-Link.com,2013-10-20 15:09:00,
2013-10-20 08:25:00,49.3,45.6,30.14,SSW,202,1.7,-999.0,87,-99.99,,,0.00,Acu-Link.com,2013-10-20 15:25:00,
2013-10-20 08:40:00,52.2,46.9,30.14,SSW,202,1.1,-999.0,82,-99.99,,,0.00,Acu-Link.com,2013-10-20 15:40:00,
2013-10-20 08:56:00,55.2,47.1,30.14,SSW,202,1.7,-999.0,74,-99.99,,,0.00,Acu-Link.com,2013-10-20 15:56:00,
2013-10-20 09:11:00,59.2,47.4,30.14,SSW,202,1.7,-999.0,65,-99.99,,,0.00,Acu-Link.com,2013-10-20 16:11:00,
2013-10-20 09:27:00,61.2,45.8,30.14,SSW,202,2.7,-999.0,57,-99.99,,,0.00,Acu-Link.com,2013-10-20 16:27:00,
2013-10-20 09:42:00,61.7,45.8,30.14,SSW,202,1.7,-999.0,56,-99.99,,,0.00,Acu-Link.com,2013-10-20 16:42:00,
2013-10-20 09:58:00,63.7,46.2,30.14,NNW,337,2.2,-999.0,53,-99.99,,,0.00,Acu-Link.com,2013-10-20 16:58:00,
2013-10-20 10:13:00,65.3,46.7,30.13,NNW,337,0.0,-999.0,51,-99.99,,,0.00,Acu-Link.com,2013-10-20 17:13:00,
2013-10-20 10:28:00,66.9,47.1,30.13,West,270,1.1,-999.0,49,-99.99,,,0.00,Acu-Link.com,2013-10-20 17:28:00,
2013-10-20 10:43:00,69.1,46.9,30.13,West,270,1.1,-999.0,45,-99.99,,,0.00,Acu-Link.com,2013-10-20 17:43:00,
2013-10-20 10:58:00,70.5,46.3,30.12,NW,315,2.2,-999.0,42,-99.99,,,0.00,Acu-Link.com,2013-10-20 17:58:00,
2013-10-20 11:14:00,71.1,46.2,30.12,WSW,247,1.1,-999.0,41,-99.99,,,0.00,Acu-Link.com,2013-10-20 18:14:00,
2013-10-20 11:29:00,72.1,45.8,30.12,WSW,247,4.2,-999.0,39,-99.99,,,0.00,Acu-Link.com,2013-10-20 18:29:00,
2013-10-20 11:44:00,73.0,47.2,30.11,West,270,2.2,-999.0,40,-99.99,,,0.00,Acu-Link.com,2013-10-20 18:44:00,
2013-10-20 11:59:00,74.3,46.3,30.10,WSW,247,1.7,-999.0,37,-99.99,,,0.00,Acu-Link.com,2013-10-20 18:59:00,
2013-10-20 12:15:00,76.3,47.4,30.09,South,180,1.1,-999.0,36,-99.99,,,0.00,Acu-Link.com,2013-10-20 19:15:00,
2013-10-20 12:30:00,75.7,46.1,30.09,WSW,247,2.2,-999.0,35,-99.99,,,0.00,Acu-Link.com,2013-10-20 19:30:00,
2013-10-20 12:45:00,77.7,46.3,30.08,WSW,247,3.7,-999.0,33,-99.99,,,0.00,Acu-Link.com,2013-10-20 19:45:00,
2013-10-20 13:00:00,77.9,45.6,30.07,NW,315,1.1,-999.0,32,-99.99,,,0.00,Acu-Link.com,2013-10-20 20:00:00,
2013-10-20 13:15:00,79.3,46.0,30.05,WSW,247,0.0,-999.0,31,-99.99,,,0.00,Acu-Link.com,2013-10-20 20:15:00,
2013-10-20 13:30:00,78.8,45.6,30.04,West,270,1.1,-999.0,31,-99.99,,,0.00,Acu-Link.com,2013-10-20 20:30:00,
2013-10-20 13:46:00,79.2,45.9,30.03,WSW,247,3.2,-999.0,31,-99.99,,,0.00,Acu-Link.com,2013-10-20 20:46:00,
2013-10-20 14:01:00,81.5,46.2,30.02,NNW,337,4.7,-999.0,29,-99.99,,,0.00,Acu-Link.com,2013-10-20 21:01:00,
2013-10-20 14:16:00,81.0,44.8,30.01,WSW,247,2.7,-999.0,28,-99.99,,,0.00,Acu-Link.com,2013-10-20 21:16:00,
2013-10-20 14:31:00,81.3,46.0,30.01,SSE,157,2.7,-999.0,29,-99.99,,,0.00,Acu-Link.com,2013-10-20 21:31:00,
2013-10-20 14:47:00,81.9,45.6,30.00,ENE,67,2.2,-999.0,28,-99.99,,,0.00,Acu-Link.com,2013-10-20 21:47:00,
2013-10-20 15:02:00,81.7,43.5,30.00,North,0,2.7,-999.0,26,-99.99,,,0.00,Acu-Link.com,2013-10-20 22:02:00,
2013-10-20 15:17:00,82.4,44.0,29.98,West,270,2.7,-999.0,26,-99.99,,,0.00,Acu-Link.com,2013-10-20 22:17:00,
2013-10-20 15:32:00,82.6,44.2,29.95,WNW,292,5.3,-999.0,26,-99.99,,,0.00,Acu-Link.com,2013-10-20 22:32:00,
2013-10-20 15:48:00,82.0,44.7,29.94,West,270,2.2,-999.0,27,-99.99,,,0.00,Acu-Link.com,2013-10-20 22:48:00,
2013-10-20 16:03:00,82.8,44.4,29.92,WNW,292,2.7,-999.0,26,-99.99,,,0.00,Acu-Link.com,2013-10-20 23:03:00,
2013-10-20 16:18:00,82.8,44.4,29.92,NNE,22,3.7,-999.0,26,-99.99,,,0.00,Acu-Link.com,2013-10-20 23:18:00,
2013-10-20 16:33:00,82.2,43.9,29.92,NW,315,2.2,-999.0,26,-99.99,,,0.00,Acu-Link.com,2013-10-20 23:33:00,
2013-10-20 16:49:00,83.1,44.6,29.92,NNE,22,1.7,-999.0,26,-99.99,,,0.00,Acu-Link.com,2013-10-20 23:49:00,
2013-10-20 17:04:00,82.2,44.9,29.95,NNE,22,2.2,-999.0,27,-99.99,,,0.00,Acu-Link.com,2013-10-21 00:04:00,
2013-10-20 17:19:00,82.0,45.7,29.95,North,0,2.7,-999.0,28,-99.99,,,0.00,Acu-Link.com,2013-10-21 00:19:00,
2013-10-20 17:34:00,81.1,44.9,29.96,NNW,337,2.2,-999.0,28,-99.99,,,0.00,Acu-Link.com,2013-10-21 00:34:00,
2013-10-20 17:49:00,81.1,44.9,29.96,NNW,337,1.7,-999.0,28,-99.99,,,0.00,Acu-Link.com,2013-10-21 00:49:00,
2013-10-20 18:05:00,79.3,46.9,29.96,NNW,337,0.0,-999.0,32,-99.99,,,0.00,Acu-Link.com,2013-10-21 01:05:00,
2013-10-20 18:20:00,76.5,47.5,29.97,NNW,337,0.0,-999.0,36,-99.99,,,0.00,Acu-Link.com,2013-10-21 01:20:00,
2013-10-20 18:35:00,73.4,47.6,29.97,NNW,337,0.0,-999.0,40,-99.99,,,0.00,Acu-Link.com,2013-10-21 01:35:00,
2013-10-20 18:51:00,71.1,47.5,29.98,NNW,337,0.0,-999.0,43,-99.99,,,0.00,Acu-Link.com,2013-10-21 01:51:00,
2013-10-20 19:06:00,68.9,47.3,29.98,NNW,337,0.0,-999.0,46,-99.99,,,0.00,Acu-Link.com,2013-10-21 02:06:00,
2013-10-20 19:21:00,67.3,48.5,29.99,NNW,337,0.0,-999.0,51,-99.99,,,0.00,Acu-Link.com,2013-10-21 02:21:00,
2013-10-20 19:37:00,65.8,49.2,30.00,NNW,337,0.0,-999.0,55,-99.99,,,0.00,Acu-Link.com,2013-10-21 02:37:00,
2013-10-20 19:52:00,64.4,49.3,30.00,NNW,337,0.0,-999.0,58,-99.99,,,0.00,Acu-Link.com,2013-10-21 02:52:00,
2013-10-20 20:07:00,63.0,48.9,30.00,NNW,337,0.0,-999.0,60,-99.99,,,0.00,Acu-Link.com,2013-10-21 03:07:00,
2013-10-20 20:23:00,61.5,48.4,30.01,NNW,337,0.0,-999.0,62,-99.99,,,0.00,Acu-Link.com,2013-10-21 03:23:00,
2013-10-20 20:38:00,59.9,48.5,30.01,NNW,337,0.0,-999.0,66,-99.99,,,0.00,Acu-Link.com,2013-10-21 03:38:00,
2013-10-20 20:53:00,59.2,48.6,30.02,NNW,337,0.0,-999.0,68,-99.99,,,0.00,Acu-Link.com,2013-10-21 03:53:00,
2013-10-20 21:09:00,58.8,48.7,30.02,NNW,337,0.0,-999.0,69,-99.99,,,0.00,Acu-Link.com,2013-10-21 04:09:00,
2013-10-20 21:24:00,58.5,48.4,30.03,NNW,337,0.0,-999.0,69,-99.99,,,0.00,Acu-Link.com,2013-10-21 04:24:00,
2013-10-20 21:39:00,58.3,48.6,30.04,NNW,337,0.0,-999.0,70,-99.99,,,0.00,Acu-Link.com,2013-10-21 04:39:00,
2013-10-20 21:54:00,58.1,49.9,30.04,NNW,337,0.0,-999.0,74,-99.99,,,0.00,Acu-Link.com,2013-10-21 04:54:00,
2013-10-20 22:09:00,56.8,48.6,30.05,NNW,337,0.0,-999.0,74,-99.99,,,0.00,Acu-Link.com,2013-10-21 05:09:00,
2013-10-20 22:25:00,56.1,48.6,30.04,NNW,337,0.0,-999.0,76,-99.99,,,0.00,Acu-Link.com,2013-10-21 05:25:00,
2013-10-20 22:40:00,55.9,49.1,30.03,NNW,337,0.0,-999.0,78,-99.99,,,0.00,Acu-Link.com,2013-10-21 05:40:00,
2013-10-20 22:55:00,55.8,49.4,30.03,NNW,337,0.0,-999.0,79,-99.99,,,0.00,Acu-Link.com,2013-10-21 05:55:00,
2013-10-20 23:10:00,54.9,48.2,30.03,NNW,337,0.0,-999.0,78,-99.99,,,0.00,Acu-Link.com,2013-10-21 06:10:00,
2013-10-20 23:26:00,54.5,47.8,30.03,NNW,337,0.0,-999.0,78,-99.99,,,0.00,Acu-Link.com,2013-10-21 06:26:00,
2013-10-20 23:41:00,53.4,47.7,30.03,NNW,337,0.0,-999.0,81,-99.99,,,0.00,Acu-Link.com,2013-10-21 06:41:00,
2013-10-20 23:56:00,53.4,47.7,30.03,NNW,337,0.0,-999.0,81,-99.99,,,0.00,Acu-Link.com,2013-10-21 06:56:00,